Regional Weather Roundup
Issued by NWS Albany, NY

Home | Current Version | Previous Version | Text Only | Print | Product List | Glossary On
Versions: 1 2 3 4 5 6 7 8 9 10 11 12 13 14 15 16 17 18 19 20 21 22 23 24 25 26 27 28 29 30 31 32 33 34 35 36 37 38 39 40 41 42 43 44 45 46 47 48 49 50
000
ASUS41 KALY 181710
RWRALY

NEW YORK STATE HOURLY WEATHER ROUNDUP
NATIONAL WEATHER SERVICE ALBANY NY
1200 PM EST THU DEC 18 2014

NOTE: "FAIR" INDICATES FEW OR NO CLOUDS BELOW 12,000 FEET WITH NO
SIGNIFICANT WEATHER AND/OR NO OBSTRUCTIONS TO VISIBILITY.

NYZ032-033-038>043-046>054-057>066-NYZ062>081-181800-
EAST


CITY           SKY/WX    TMP DP  RH WIND       PRES   REMARKS
ALBANY         CLOUDY    36  26  67 NW17      29.92F WCI  26
GLENS FALLS    CLOUDY    38  25  59 W9        29.87F WCI  31
POUGHKEEPSIE   PTSUNNY   40  24  53 NW8       29.92F WCI  34
NEWBURGH       MOSUNNY   39  27  60 W23G35    29.93F WCI  29
MONTGOMERY     PTSUNNY   38  23  55 NW17G24   29.93F WCI  28
WHITE PLAINS   PTSUNNY   39  23  52 W18G26    29.92F WCI  30
ISLIP          PTSUNNY   42  24  49 W18G24    29.91F
NEW YORK CITY  PTSUNNY   40  24  53 NW22G30   29.96F WCI  30
CENTRAL PARK   CLOUDY    40  22  48 W8G17     29.99F WCI  34
$$

NYZ005>009-017-018-044>046-055-056-181800-
CENTRAL


CITY           SKY/WX    TMP DP  RH WIND       PRES   REMARKS
FULTON         CLOUDY    33  26  75 NW16      30.00F WCI  23
SYRACUSE       CLOUDY    32  30  92 W14       29.99F FOG     WCI  22
ROME           LGT SNOW  32  29  88 W14       29.98F FOG     WCI  22
ELMIRA         CLOUDY    34  27  75 W10       30.01F WCI  26
BINGHAMTON     CLOUDY    29  25  85 NW10G18   29.94F WCI  20
MONTICELLO     CLOUDY    30  25  80 W13G24    29.92F WCI  20
$$

NYZ026>034-041>043-181800-
NORTH


CITY           SKY/WX    TMP DP  RH WIND       PRES   REMARKS
WATERTOWN      CLOUDY    32  23  69 NW6       29.99F WCI  26
FORT DRUM      NOT AVBL
MASSENA        CLOUDY    30  26  85 W13       29.95S WCI  20
SARANAC LAKE   CLOUDY    27  23  85 W10G20    29.82F FOG     WCI  17
PLATTSBURGH    CLOUDY    35  26  69 NW13G23   29.86S WCI  26
$$

NYZ001>004-010>016-019>021-181800-
WEST


CITY           SKY/WX    TMP DP  RH WIND       PRES   REMARKS
NIAGARA FALLS  CLOUDY    32  26  78 NW12      30.08F WCI  23
BUFFALO        FLURRIES  32  26  78 W13       30.07F WCI  22
DUNKIRK        CLOUDY    32  26  78 W8G18     30.11F WCI  25
JAMESTOWN      CLOUDY    28  25  86 W9        30.06S WCI  20
WELLSVILLE     CLOUDY    28  25  88 NW13      29.99F WCI  17
ROCHESTER      CLOUDY    33  25  72 NW14G23   30.04F WCI  23
PENN YAN       CLOUDY    32  26  78 W9G20     30.01F WCI  24
$$

             KEY
       WCI = WIND CHILL INDEX
       VSB = VISIBILITY
       HX  = HEAT INDEX
$$



USA.gov is the U.S. government's official web portal to all federal, state and local government web resources and services.